CW1459 Weather Reports


time (UTC)temp
C
wind
direction
speed
KPH
gust
KPH
rain 1hr
cm
rain 24hr
cm
rain mn
cm
humidity
%
barometer
mb
20220124114318 -2 313 0.0 20.9 0.00 0.00 0.00 65 1011.6
20220124113316 -2 306 0.0 16.1 0.00 0.00 0.00 67 1011.4
20220124112334 -2 321 1.6 14.5 0.00 0.00 0.00 69 1011.3
20220124111325 -2 313 0.0 0.0 0.00 0.00 0.00 71 1011.2
20220124110338 -2 332 0.0 0.0 0.00 0.00 0.00 72 1011.0
20220124105314 -2 332 0.0 0.0 0.00 0.00 0.00 72 1010.9
20220124104318 -2 332 0.0 0.0 0.00 0.00 0.00 72 1010.8
20220124103315 -2 332 0.0 0.0 0.00 0.00 0.00 72 1010.5
20220124102314 -2 332 0.0 0.0 0.00 0.00 0.00 72 1010.4
20220124101326 -2 332 0.0 0.0 0.00 0.00 0.00 71 1010.5
20220124100313 -2 332 0.0 0.0 0.00 0.00 0.00 70 1010.4
20220124095327 -2 332 0.0 0.0 0.00 0.00 0.00 70 1010.1
20220124094314 -2 17 0.0 0.0 0.00 0.00 0.00 68 1009.9
20220124093331 -2 18 0.0 0.0 0.00 0.00 0.00 68 1010.1
20220124092336 -2 51 0.0 1.6 0.00 0.00 0.00 67 1009.8
20220124091325 -2 345 0.0 3.2 0.00 0.00 0.00 67 1009.6
20220124090313 -2 351 0.0 9.7 0.00 0.00 0.00 66 1009.5
20220124085322 -1 332 0.0 9.7 0.00 0.00 0.00 65 1009.6
20220124084322 -1 346 1.6 9.7 0.00 0.00 0.00 65 1009.7
20220124083313 -1 326 0.0 6.4 0.00 0.00 0.00 64 1009.6
20220124082315 -1 16 0.0 8.0 0.00 0.00 0.00 63 1009.3
20220124081317 -1 5 0.0 16.1 0.00 0.00 0.00 64 1009.1
20220124080315 -1 335 1.6 17.7 0.00 0.00 0.00 63 1009.1
20220124075320 -1 334 1.6 25.7 0.00 0.00 0.00 64 1008.9
20220124074324 -1 342 8.0 20.9 0.00 0.00 0.00 68 1008.7
20220124073313 0 331 0.0 22.5 0.00 0.00 0.00 70 1008.6
20220124072319 0 340 0.0 12.9 0.00 0.00 0.00 72 1008.6
20220124071316 0 351 8.0 22.5 0.00 0.00 0.00 72 1008.5
20220124070323 0 9 8.0 19.3 0.00 0.00 0.00 72 1008.3
20220124065339 0 331 6.4 16.1 0.00 0.00 0.00 71 1008.1
20220124064317 0 313 9.7 17.7 0.00 0.00 0.00 72 1007.9
20220124063321 0 347 1.6 8.0 0.00 0.00 0.00 74 1007.6
20220124062324 0 351 0.0 0.0 0.00 0.00 0.00 73 1007.4
20220124061312 0 338 0.0 0.0 0.00 0.00 0.00 74 1007.5
20220124060320 0 328 0.0 1.6 0.00 0.00 0.00 74 1007.5
20220124055319 0 331 0.0 1.6 0.00 0.00 0.00 74 1007.5
20220124054314 0 329 0.0 1.6 0.00 0.00 0.00 73 1007.6
20220124053320 0 323 0.0 4.8 0.00 0.00 0.00 73 1007.7
20220124052317 0 322 0.0 3.2 0.00 0.00 0.00 72 1007.6
20220124051314 0 323 1.6 8.0 0.00 0.00 0.00 72 1007.4
20220124050312 0 343 0.0 9.7 0.00 0.00 0.00 72 1007.1
20220124045316 0 351 0.0 4.8 0.00 0.00 0.00 71 1007.1
20220124044335 1 329 0.0 14.5 0.00 0.00 0.00 71 1007.5
20220124043321 1 284 0.0 6.4 0.00 0.00 0.00 71 1007.4
20220124042315 1 327 1.6 8.0 0.00 0.00 0.00 70 1007.5
20220124041319 1 296 1.6 19.3 0.00 0.00 0.00 69 1007.6
20220124040331 1 292 4.8 17.7 0.00 0.00 0.00 69 1007.5
20220124035315 1 302 0.0 14.5 0.00 0.00 0.00 70 1007.5
20220124034329 1 278 0.0 12.9 0.00 0.00 0.00 69 1007.4
20220124033338 1 283 0.0 11.3 0.00 0.00 0.00 69 1007.3
20220124032328 1 279 0.0 6.4 0.00 0.00 0.00 70 1007.2
20220124031313 1 298 0.0 0.0 0.00 0.00 0.00 69 1007.2
20220124030331 1 312 0.0 9.7 0.00 0.00 0.00 68 1007.1
20220124025317 1 301 3.2 8.0 0.00 0.00 0.00 67 1007.0
20220124024329 1 290 1.6 6.4 0.00 0.00 0.00 66 1007.0
20220124023318 1 290 0.0 8.0 0.00 0.00 0.00 64 1006.9
20220124022315 1 295 0.0 1.6 0.00 0.00 0.00 64 1006.9
20220124021329 1 267 0.0 9.7 0.00 0.00 0.00 63 1007.0
20220124020338 1 267 1.6 12.9 0.00 0.00 0.00 63 1007.0
20220124015313 1 286 1.6 12.9 0.00 0.00 0.00 61 1006.9
20220124014329 1 260 0.0 12.9 0.00 0.00 0.00 60 1006.9
20220124013316 1 274 0.0 1.6 0.00 0.00 0.00 59 1006.7
20220124012314 1 204 0.0 0.0 0.00 0.00 0.00 59 1006.7
20220124011318 1 198 0.0 0.0 0.00 0.00 0.00 57 1006.6
20220124010316 1 189 0.0 8.0 0.00 0.00 0.00 57 1006.5
20220124005314 1 195 0.0 1.6 0.00 0.00 0.00 57 1006.5
20220124004331 1 190 0.0 4.8 0.00 0.00 0.00 58 1006.4
20220124003312 1 174 0.0 0.0 0.00 0.00 0.00 58 1006.4
20220124002314 1 174 0.0 0.0 0.00 0.00 0.00 58 1006.3
20220124001331 1 168 0.0 3.2 0.00 0.00 0.00 58 1006.3
20220124000318 1 174 0.0 12.9 0.00 0.00 0.00 57 1006.2
20220123235314 1 202 0.0 1.6 0.00 0.00 0.00 57 1006.3
20220123234329 1 207 0.0 3.2 0.00 0.00 0.00 57 1006.4
20220123233316 1 186 0.0 8.0 0.00 0.00 0.00 56 1006.3
20220123232327 1 175 3.2 16.1 0.00 0.00 0.00 57 1006.2
20220123231312 1 189 1.6 11.3 0.00 0.00 0.00 56 1006.1
20220123230329 1 167 4.8 11.3 0.00 0.00 0.00 56 1006.0
20220123225317 1 174 0.0 8.0 0.00 0.00 0.00 55 1005.9
20220123224313 1 161 0.0 8.0 0.00 0.00 0.00 55 1005.9
20220123223315 1 190 0.0 14.5 0.00 0.00 0.00 55 1005.7
20220123222328 1 158 1.6 16.1 0.00 0.00 0.00 55 1005.5
20220123221315 1 172 4.8 17.7 0.00 0.00 0.00 55 1005.5
20220123220313 1 157 1.6 16.1 0.00 0.00 0.00 55 1005.5
20220123215328 1 178 1.6 16.1 0.00 0.00 0.00 55 1005.7
20220123214316 1 163 3.2 14.5 0.00 0.00 0.00 54 1005.8
20220123213324 1 209 3.2 12.9 0.00 0.00 0.00 54 1005.8
20220123212314 1 175 6.4 16.1 0.00 0.00 0.00 53 1005.9
20220123211312 1 184 1.6 11.3 0.00 0.00 0.00 52 1006.0
20220123210321 1 169 4.8 20.9 0.00 0.00 0.00 52 1005.9
20220123205316 1 158 3.2 14.5 0.00 0.00 0.00 51 1006.0
20220123204316 1 184 8.0 17.7 0.00 0.00 0.00 51 1006.1
20220123203312 1 171 3.2 12.9 0.00 0.00 0.00 51 1006.1
20220123202323 1 169 6.4 17.7 0.00 0.00 0.00 50 1006.2
20220123201334 1 194 4.8 14.5 0.00 0.00 0.00 50 1006.2
20220123200315 1 169 3.2 16.1 0.00 0.00 0.00 51 1006.3
20220123195331 1 163 6.4 14.5 0.00 0.00 0.00 51 1006.6
20220123194327 1 148 0.0 19.3 0.00 0.00 0.00 51 1006.8
20220123193315 1 178 0.0 12.9 0.00 0.00 0.00 51 1007.1
20220123192319 1 190 3.2 14.5 0.00 0.00 0.00 50 1007.1
20220123191316 1 240 1.6 16.1 0.00 0.00 0.00 50 1007.2
20220123190314 1 179 6.4 16.1 0.00 0.00 0.00 49 1007.2
20220123185312 1 200 3.2 17.7 0.00 0.00 0.00 49 1007.4
20220123184311 1 192 1.6 11.3 0.00 0.00 0.00 50 1007.5
20220123183321 1 194 0.0 12.9 0.00 0.00 0.00 50 1007.8
20220123182334 1 230 9.7 17.7 0.00 0.00 0.00 50 1008.1
20220123181328 1 209 1.6 14.5 0.00 0.00 0.00 50 1008.1
20220123180314 1 167 3.2 16.1 0.00 0.00 0.00 50 1008.4
20220123175321 1 203 6.4 17.7 0.00 0.00 0.00 50 1008.5
20220123174318 1 214 4.8 20.9 0.00 0.00 0.00 51 1008.6
20220123173315 1 191 11.3 19.3 0.00 0.00 0.00 53 1008.9
20220123172325 1 198 9.7 20.9 0.00 0.00 0.00 53 1009.4
20220123171327 1 229 14.5 20.9 0.00 0.00 0.00 52 1009.6
20220123170320 1 236 9.7 24.1 0.00 0.00 0.00 52 1009.6
20220123165316 1 233 8.0 19.3 0.00 0.00 0.00 53 1010.0
20220123164336 1 244 12.9 24.1 0.00 0.00 0.00 53 1010.3
20220123163329 1 216 8.0 20.9 0.00 0.00 0.00 52 1010.6
20220123162315 1 186 3.2 24.1 0.00 0.00 0.00 53 1010.6
20220123161332 1 213 9.7 25.7 0.00 0.00 0.00 54 1011.0
20220123160317 0 234 3.2 24.1 0.00 0.00 0.00 55 1011.2
20220123155325 0 227 1.6 19.3 0.00 0.00 0.00 57 1011.5
20220123153316 0 223 3.2 14.5 0.00 0.00 0.00 62 1011.8
20220123152331 0 186 1.6 17.7 0.00 0.00 0.00 62 1012.0
20220123151328 0 227 3.2 16.1 0.00 0.00 0.00 63 1012.0
20220123150340 -1 217 1.6 16.1 0.00 0.00 0.00 64 1012.2
20220123145319 -1 225 1.6 12.9 0.00 0.00 0.00 64 1012.2
20220123144319 -1 222 1.6 16.1 0.00 0.00 0.00 65 1012.4
20220123143316 -1 168 0.0 8.0 0.00 0.00 0.00 66 1012.4
20220123142326 -2 196 0.0 8.0 0.00 0.00 0.00 66 1012.5
20220123141337 -2 192 0.0 8.0 0.00 0.00 0.00 67 1012.4
20220123140320 -2 177 1.6 8.0 0.00 0.00 0.00 69 1012.5
20220123135336 -3 211 0.0 1.6 0.00 0.00 0.00 72 1012.7
20220123134330 -4 171 0.0 3.2 0.00 0.00 0.00 78 1012.9
20220123133314 -6 195 0.0 0.0 0.00 0.00 0.00 82 1013.0
20220123132321 -6 223 0.0 0.0 0.00 0.00 0.00 81 1013.2
20220123131319 -6 223 0.0 0.0 0.00 0.00 0.00 80 1013.3
20220123130315 -5 221 0.0 0.0 0.00 0.00 0.00 79 1013.5
20220123125323 -5 221 0.0 1.6 0.00 0.00 0.00 77 1013.5
20220123124337 -5 167 0.0 0.0 0.00 0.00 0.00 76 1013.7
20220123123324 -5 167 0.0 0.0 0.00 0.00 0.00 76 1013.6
20220123122317 -6 167 0.0 0.0 0.00 0.00 0.00 79 1014.0
20220123121316 -6 167 0.0 0.0 0.00 0.00 0.00 77 1014.0
20220123120320 -5 167 0.0 0.0 0.00 0.00 0.00 76 1014.0
20220123115318 -5 167 0.0 0.0 0.00 0.00 0.00 76 1014.1